Weather History for Rush City, MN

Change the Weather History Date:

Wednesday, January 23, 2013

  Actual Average (KCBG) Record (KCBG)
Temperature  
Mean Temperature 2 °F -  
Max Temperature 12 °F 23 °F 48 °F (1981)
Min Temperature -9 °F 4 °F -32 °F (1963)
Degree Days  
Heating Degree Days 64    
Moisture  
Dew Point -8 °F    
Average Humidity 65    
Maximum Humidity 82    
Minimum Humidity 45    
Precipitation  
Precipitation 0.00 in - - ()
Sea Level Pressure  
Sea Level Pressure 30.28 in    
Wind  
Wind Speed 5 mph (NW)    
Max Wind Speed 20 mph    
Max Gust Speed 29 mph    
Visibility 10 miles    
Events      
Averages and records for this station are not official NWS values.
T = Trace of Precipitation, MM = Missing Value Source: NWS Daily Summary

Daily Weather History Graph

Daily Weather History Graph

Search for Another Location

Airport:

Trip Planner

Search our weather history database for the weather conditions in past years. The results will help you decide how hot, cold, wet, or windy it might be!

Date:

Astronomy

Jan. 23, 2013 Rise Set
Actual Time 7:42 AM CST 5:05 PM CST
Civil Twilight 7:10 AM CST 5:37 PM CST
Nautical Twilight 6:33 AM CST 6:14 PM CST
Astronomical Twilight 5:58 AM CST 6:49 PM CST
Moon 2:13 PM CST (1/23) 4:57 AM CST (1/23)
Length of Visible Light 10h 27m
Length of Day
9h 22m
Waxing Gibbous, 89% of the Moon is Illuminated
Jan 23
Waxing Gibbous
Jan 26
Full
Feb 3
Last Quarter
Feb 10
New
Feb 17
First Quarter

Hourly Weather History & Observations

Time (CST) Temp. Windchill Dew Point Humidity Pressure Visibility Wind Dir Wind Speed Gust Speed Precip Events Conditions
12:14 AM -2.4 °F - -8.5 °F 75% 30.21 in 10.0 mi Calm Calm - N/A   Overcast
12:35 AM -2.0 °F - -8.0 °F 76% 30.21 in 10.0 mi Calm Calm - N/A   Overcast
12:55 AM -1.3 °F -9.3 °F -7.6 °F 75% 30.21 in 10.0 mi SSW 3.5 mph - N/A   Overcast
1:14 AM -0.8 °F - -6.9 °F 75% 30.20 in 10.0 mi Calm Calm - N/A   Overcast
1:35 AM -0.9 °F - -6.7 °F 77% 30.19 in 10.0 mi Calm Calm - N/A   Overcast
1:55 AM -0.8 °F -8.7 °F -6.3 °F 77% 30.19 in 10.0 mi South 3.5 mph - N/A   Overcast
2:14 AM -0.4 °F - -6.0 °F 77% 30.19 in 10.0 mi Calm Calm - N/A   Overcast
2:35 AM 0.1 °F -7.7 °F -5.3 °F 78% 30.18 in 10.0 mi South 3.5 mph - N/A   Overcast
2:55 AM 0.5 °F - -5.1 °F 77% 30.18 in 10.0 mi Calm Calm - N/A   Overcast
3:14 AM 0.9 °F - -4.9 °F 77% 30.17 in 10.0 mi Calm Calm - N/A   Overcast
3:35 AM 0.9 °F - -4.7 °F 77% 30.17 in 10.0 mi Calm Calm - N/A   Overcast
3:55 AM 0.5 °F - -4.5 °F 79% 30.16 in 10.0 mi Calm Calm - N/A   Overcast
4:14 AM 0.9 °F - -4.4 °F 79% 30.16 in 10.0 mi Calm Calm - N/A   Overcast
4:35 AM 1.2 °F - -4.0 °F 79% 30.15 in 10.0 mi Calm Calm - N/A   Overcast
4:55 AM 1.6 °F - -3.6 °F 79% 30.14 in 10.0 mi Calm Calm - N/A   Overcast
5:14 AM 1.9 °F - -3.3 °F 79% 30.14 in 10.0 mi Calm Calm - N/A   Overcast
5:35 AM 2.1 °F - -3.1 °F 79% 30.14 in 10.0 mi Calm Calm - N/A   Overcast
5:55 AM 2.1 °F - -2.9 °F 79% 30.14 in 10.0 mi Calm Calm - N/A   Overcast
6:14 AM 2.3 °F - -2.4 °F 81% 30.14 in 10.0 mi Calm Calm - N/A   Overcast
6:35 AM 2.5 °F - -2.2 °F 81% 30.14 in 10.0 mi Calm Calm - N/A   Overcast
6:55 AM 3.0 °F - -1.7 °F 81% 30.13 in 10.0 mi Calm Calm - N/A   Overcast
7:14 AM 3.2 °F - -1.3 °F 82% 30.13 in 10.0 mi Calm Calm - N/A   Overcast
7:35 AM 3.7 °F - -0.6 °F 82% 30.13 in 10.0 mi Calm Calm - N/A   Overcast
7:55 AM 4.1 °F -3.2 °F -0.4 °F 82% 30.13 in 10.0 mi WSW 3.5 mph - N/A   Overcast
8:14 AM 5.0 °F -5.6 °F 0.3 °F 81% 30.13 in 10.0 mi SW 5.8 mph - N/A   Overcast
8:35 AM 5.5 °F -1.5 °F 0.5 °F 80% 30.13 in 10.0 mi WSW 3.5 mph - N/A   Overcast
8:55 AM 5.9 °F -4.5 °F 1.0 °F 80% 30.13 in 10.0 mi WSW 5.8 mph - N/A   Overcast
9:14 AM 6.4 °F -5.2 °F 1.4 °F 80% 30.13 in 10.0 mi WSW 6.9 mph - N/A   Overcast
9:35 AM 6.8 °F -4.8 °F 1.6 °F 79% 30.13 in 10.0 mi West 6.9 mph - N/A   Overcast
9:55 AM 8.1 °F -3.2 °F 2.3 °F 77% 30.14 in 10.0 mi West 6.9 mph - N/A   Overcast
10:14 AM 9.9 °F -1.1 °F 2.8 °F 73% 30.14 in 10.0 mi West 6.9 mph - N/A   Overcast
10:35 AM 10.6 °F -1.3 °F 2.8 °F 71% 30.14 in 10.0 mi West 8.1 mph - N/A   Scattered Clouds
10:54 AM 11.7 °F -0.9 °F 2.8 °F 68% 30.14 in 10.0 mi West 9.2 mph - N/A   Clear
11:15 AM 12.4 °F -2.3 °F 3.6 °F 68% 30.14 in 10.0 mi WNW 12.7 mph - N/A   Mostly Cloudy
11:35 AM 12.0 °F -4.5 °F 2.1 °F 65% 30.14 in 10.0 mi WNW 16.1 mph 23.0 mph N/A   Overcast
11:54 AM 12.2 °F -5.3 °F -0.4 °F 57% 30.15 in 10.0 mi NW 18.4 mph 25.3 mph N/A   Scattered Clouds
12:15 PM 11.3 °F -4.3 °F -1.1 °F 57% 30.15 in 10.0 mi NW 13.8 mph 21.9 mph N/A   Scattered Clouds
12:35 PM 11.3 °F -3.6 °F -1.5 °F 57% 30.16 in 10.0 mi NW 12.7 mph 26.5 mph N/A   Scattered Clouds
12:54 PM 11.3 °F -5.5 °F -0.8 °F 58% 30.16 in 10.0 mi WNW 16.1 mph 24.2 mph N/A   Mostly Cloudy
1:15 PM 10.2 °F -5.7 °F -2.6 °F 56% 30.17 in 10.0 mi NW 13.8 mph 25.3 mph N/A   Mostly Cloudy
1:35 PM 9.5 °F -7.8 °F -4.4 °F 54% 30.18 in 10.0 mi NW 16.1 mph 26.5 mph N/A   Mostly Cloudy
1:55 PM 8.6 °F -9.5 °F -6.3 °F 51% 30.19 in 10.0 mi NW 17.3 mph 28.8 mph N/A   Mostly Cloudy
2:14 PM 7.9 °F -11.0 °F -8.0 °F 49% 30.21 in 10.0 mi NW 18.4 mph 27.6 mph N/A   Mostly Cloudy
2:35 PM 6.6 °F -11.5 °F -7.4 °F 53% 30.23 in 10.0 mi NW 16.1 mph 23.0 mph N/A   Overcast
2:54 PM 5.5 °F -13.5 °F -9.2 °F 51% 30.26 in 10.0 mi NNW 17.3 mph 24.2 mph N/A   Scattered Clouds
3:15 PM 4.1 °F -14.1 °F -10.7 °F 51% 30.27 in 10.0 mi NW 15.0 mph 26.5 mph N/A   Clear
3:35 PM 4.5 °F -12.3 °F -10.8 °F 49% 30.29 in 10.0 mi NW 12.7 mph 21.9 mph N/A   Clear
3:54 PM 3.9 °F -14.3 °F -12.3 °F 47% 30.30 in 10.0 mi North 15.0 mph 20.7 mph N/A   Clear
4:15 PM 3.4 °F -17.4 °F -13.7 °F 45% 30.32 in 10.0 mi North 19.6 mph 24.2 mph N/A   Scattered Clouds
4:35 PM 2.3 °F -12.4 °F -14.1 °F 46% 30.34 in 10.0 mi NNW 9.2 mph 20.7 mph N/A   Scattered Clouds
4:54 PM 1.4 °F -18.8 °F -14.6 °F 47% 30.36 in 10.0 mi North 17.3 mph 25.3 mph N/A   Scattered Clouds
5:15 PM 0.3 °F -14.8 °F -14.8 °F 49% 30.38 in 10.0 mi North 9.2 mph 17.3 mph N/A   Scattered Clouds
5:35 PM -0.4 °F -19.2 °F -15.0 °F 50% 30.40 in 10.0 mi North 13.8 mph 19.6 mph N/A   Mostly Cloudy
5:55 PM -1.1 °F -19.3 °F -15.5 °F 51% 30.41 in 10.0 mi North 12.7 mph 21.9 mph N/A   Overcast
6:15 PM -1.7 °F -17.3 °F -16.1 °F 51% 30.43 in 10.0 mi NNW 9.2 mph 17.3 mph N/A   Mostly Cloudy
6:35 PM -2.2 °F -18.0 °F -15.9 °F 52% 30.46 in 10.0 mi North 9.2 mph - N/A   Mostly Cloudy
6:55 PM -2.7 °F -20.5 °F -17.5 °F 49% 30.47 in 10.0 mi NNW 11.5 mph 17.3 mph N/A   Overcast
7:14 PM -3.1 °F -20.1 °F -17.5 °F 50% 30.47 in 10.0 mi North 10.4 mph 20.7 mph N/A   Mostly Cloudy
7:34 PM -4.0 °F -20.2 °F -17.5 °F 52% 30.49 in 10.0 mi NNW 9.2 mph - N/A   Mostly Cloudy
7:55 PM -4.5 °F -20.8 °F -17.9 °F 53% 30.50 in 10.0 mi NNW 9.2 mph - N/A   Mostly Cloudy
8:14 PM -4.9 °F -21.3 °F -17.7 °F 54% 30.52 in 10.0 mi North 9.2 mph - N/A   Mostly Cloudy
8:35 PM -5.4 °F -20.8 °F -17.9 °F 55% 30.52 in 10.0 mi North 8.1 mph - N/A   Mostly Cloudy
8:55 PM -5.8 °F -21.2 °F -18.0 °F 56% 30.54 in 10.0 mi North 8.1 mph - N/A   Mostly Cloudy
9:15 PM -6.2 °F -21.7 °F -18.0 °F 56% 30.55 in 10.0 mi North 8.1 mph - N/A   Scattered Clouds
9:35 PM -6.7 °F -22.3 °F -18.4 °F 57% 30.55 in 10.0 mi North 8.1 mph - N/A   Scattered Clouds
9:55 PM -7.2 °F -21.7 °F -18.6 °F 58% 30.56 in 10.0 mi North 6.9 mph - N/A   Mostly Cloudy
10:15 PM -7.6 °F -23.4 °F -18.8 °F 58% 30.56 in 10.0 mi North 8.1 mph - N/A   Mostly Cloudy
10:35 PM -7.8 °F -24.8 °F -18.6 °F 59% 30.58 in 10.0 mi North 9.2 mph - N/A   Scattered Clouds
10:55 PM -8.1 °F -19.4 °F -18.8 °F 60% 30.59 in 10.0 mi NNW 4.6 mph - N/A   Scattered Clouds
11:15 PM -8.7 °F -21.9 °F -19.1 °F 60% 30.60 in 10.0 mi NNW 5.8 mph - N/A   Scattered Clouds
11:35 PM -9.2 °F -22.5 °F -19.1 °F 62% 30.61 in 10.0 mi NNW 5.8 mph - N/A   Scattered Clouds
11:55 PM -9.4 °F -24.3 °F -19.1 °F 62% 30.61 in 10.0 mi North 6.9 mph - N/A   Scattered Clouds